FW6754 Weather Reports


time (UTC)temp
F
wind
direction
speed
knots
gust
knots
rain 1hr
in
rain 24hr
in
rain mn
in
humidity
%
barometer
mb
20260507143412 84 0.0 0.0 0.00 0.00 0.00 10 1014.8
20260507142912 83 0.0 0.0 0.00 0.00 0.00 10 1015.0
20260507142412 78 0.0 0.0 0.00 0.00 0.00 10 1015.2
20260507141912 73 0.0 0.0 0.00 0.00 0.00 10 1015.6
20260507141412 80 0.0 0.0 0.00 0.00 0.00 10 1015.3
20260507140912 88 0.0 0.0 0.00 0.00 0.00 10 1014.9
20260507140412 87 0.0 0.0 0.00 0.00 0.00 10 1015.0
20260507135912 87 0.0 0.0 0.00 0.00 0.00 10 1015.0
20260507135412 85 0.0 0.0 0.00 0.00 0.00 10 1015.1
20260507134912 79 0.0 0.0 0.00 0.00 0.00 10 1015.4
20260507134411 73 0.0 0.0 0.00 0.00 0.00 10 1015.8
20260507133912 68 0.0 0.0 0.00 0.00 0.00 10 1016.1
20260507133412 68 0.0 0.0 0.00 0.00 0.00 10 1016.2
20260507132912 68 0.0 0.0 0.00 0.00 0.00 10 1016.0
20260507132412 68 0.0 0.0 0.00 0.00 0.00 10 1016.2
20260507131912 69 0.0 0.0 0.00 0.00 0.00 10 1016.1
20260507131412 68 0.0 0.0 0.00 0.00 0.00 10 1016.3
20260507130913 66 0.0 0.0 0.00 0.00 0.00 10 1016.4
20260507130412 65 0.0 0.0 0.00 0.00 0.00 10 1016.5
20260507125911 65 0.0 0.0 0.00 0.00 0.00 10 1016.6
20260507125411 68 0.0 0.0 0.00 0.00 0.00 10 1016.5
20260507124912 72 0.0 0.0 0.00 0.00 0.00 10 1016.3
20260507124411 72 0.0 0.0 0.00 0.00 0.00 10 1016.2
20260507122911 78 0.0 0.0 0.00 0.00 0.00 10 1016.0
20260507122411 81 0.0 0.0 0.00 0.00 0.00 10 1015.9
20260507121911 81 0.0 0.0 0.00 0.00 0.00 10 1015.8
20260507121411 80 0.0 0.0 0.00 0.00 0.00 10 1015.9
20260507120912 78 0.0 0.0 0.00 0.00 0.00 10 1016.2
20260507120412 75 0.0 0.0 0.00 0.00 0.00 10 1016.3
20260507115912 66 0.0 0.0 0.00 0.00 0.00 10 1016.8
20260507115411 63 0.0 0.0 0.00 0.00 0.00 10 1016.9
20260507114912 64 0.0 0.0 0.00 0.00 0.00 10 1017.0
20260507114412 63 0.0 0.0 0.00 0.00 0.00 10 1017.1
20260507113911 64 0.0 0.0 0.00 0.00 0.00 10 1017.2
20260507113411 63 0.0 0.0 0.00 0.00 0.00 10 1017.2
20260507112912 63 0.0 0.0 0.00 0.00 0.00 10 1017.3
20260507112412 61 0.0 0.0 0.00 0.00 0.00 10 1017.4
20260507111911 60 0.0 0.0 0.00 0.00 0.00 10 1017.5
20260507111411 60 0.0 0.0 0.00 0.00 0.00 10 1017.7
20260507110912 62 0.0 0.0 0.00 0.00 0.00 10 1017.5
20260507110412 60 0.0 0.0 0.00 0.00 0.00 10 1017.7
20260507105912 61 0.0 0.0 0.00 0.00 0.00 10 1017.6
20260507105412 63 0.0 0.0 0.00 0.00 0.00 10 1017.6
20260507104912 63 0.0 0.0 0.00 0.00 0.00 10 1017.6
20260507103912 63 0.0 0.0 0.00 0.00 0.00 10 1017.7
20260507103412 62 0.0 0.0 0.00 0.00 0.00 10 1017.9
20260507102412 60 0.0 0.0 0.00 0.00 0.00 10 1018.1
20260507101912 58 0.0 0.0 0.00 0.00 0.00 10 1018.1
20260507101411 58 0.0 0.0 0.00 0.00 0.00 10 1018.2
20260507100912 60 0.0 0.0 0.00 0.00 0.00 10 1018.1
20260507100412 60 0.0 0.0 0.00 0.00 0.00 10 1018.1
20260507095911 58 0.0 0.0 0.00 0.00 0.00 10 1018.1
20260507094911 59 0.0 0.0 0.00 0.00 0.00 10 1018.2
20260507094412 59 0.0 0.0 0.00 0.00 0.00 10 1018.2
20260507093912 59 0.0 0.0 0.00 0.00 0.00 10 1018.1
20260507093413 58 0.0 0.0 0.00 0.00 0.00 10 1018.1
20260507092911 58 0.0 0.0 0.00 0.00 0.00 10 1018.1
20260507091911 56 0.0 0.0 0.00 0.00 0.00 10 1018.1
20260507091412 55 0.0 0.0 0.00 0.00 0.00 10 1018.2
20260507090911 55 0.0 0.0 0.00 0.00 0.00 10 1018.1
20260507090411 56 0.0 0.0 0.00 0.00 0.00 10 1018.0
20260507085911 57 0.0 0.0 0.00 0.00 0.00 10 1018.1
20260507085411 57 0.0 0.0 0.00 0.00 0.00 10 1018.1
20260507084911 56 0.0 0.0 0.00 0.00 0.00 10 1018.1
20260507083911 54 0.0 0.0 0.00 0.00 0.00 10 1017.9
20260507082911 53 0.0 0.0 0.00 0.00 0.00 10 1018.0
20260507082411 54 0.0 0.0 0.00 0.00 0.00 10 1018.0
20260507081412 55 0.0 0.0 0.00 0.00 0.00 10 1017.9
20260507080912 55 0.0 0.0 0.00 0.00 0.00 10 1017.9
20260507080412 54 0.0 0.0 0.00 0.00 0.00 10 1018.0
20260507075912 54 0.0 0.0 0.00 0.00 0.00 10 1018.0
20260507075412 53 0.0 0.0 0.00 0.00 0.00 10 1018.1
20260507074912 53 0.0 0.0 0.00 0.00 0.00 10 1018.0
20260507074412 52 0.0 0.0 0.00 0.00 0.00 10 1018.0
20260507073911 52 0.0 0.0 0.00 0.00 0.00 10 1018.0
20260507072912 52 0.0 0.0 0.00 0.00 0.00 10 1018.0
20260507071912 51 0.0 0.0 0.00 0.00 0.00 10 1017.9
20260507071412 51 0.0 0.0 0.00 0.00 0.00 10 1018.0
20260507070912 51 0.0 0.0 0.00 0.00 0.00 10 1018.0
20260507070412 51 0.0 0.0 0.00 0.00 0.00 10 1017.9
20260507065912 50 0.0 0.0 0.00 0.00 0.00 10 1017.9
20260507065411 49 0.0 0.0 0.00 0.00 0.00 10 1018.0
20260507064912 49 0.0 0.0 0.00 0.00 0.00 10 1017.9
20260507064412 49 0.0 0.0 0.00 0.00 0.00 10 1017.8
20260507063912 49 0.0 0.0 0.00 0.00 0.00 10 1017.8
20260507063413 48 0.0 0.0 0.00 0.00 0.00 10 1017.9
20260507062912 48 0.0 0.0 0.00 0.00 0.00 10 1017.9
20260507062412 48 0.0 0.0 0.00 0.00 0.00 10 1017.9
20260507061911 47 0.0 0.0 0.00 0.00 0.00 10 1017.9
20260507061412 46 0.0 0.0 0.00 0.00 0.00 10 1017.9
20260507060913 45 0.0 0.0 0.00 0.00 0.00 10 1017.9
20260507060412 44 0.0 0.0 0.00 0.00 0.00 10 1018.0
20260507055912 44 0.0 0.0 0.00 0.00 0.00 10 1018.0
20260507055412 43 0.0 0.0 0.00 0.00 0.00 10 1018.0
20260507054913 42 0.0 0.0 0.00 0.00 0.00 10 1018.0
20260507054412 42 0.0 0.0 0.00 0.00 0.00 10 1018.0
20260507053912 41 0.0 0.0 0.00 0.00 0.00 10 1017.9
20260507053412 41 0.0 0.0 0.00 0.00 0.00 10 1018.0
20260507052911 41 0.0 0.0 0.00 0.00 0.00 10 1017.9
20260507052411 40 0.0 0.0 0.00 0.00 0.00 10 1018.0
20260507051412 40 0.0 0.0 0.00 0.00 0.00 10 1017.8
20260507050911 39 0.0 0.0 0.00 0.00 0.00 10 1017.8
20260507050411 39 0.0 0.0 0.00 0.00 0.00 10 1017.8
20260507045911 39 0.0 0.0 0.00 0.00 0.00 10 1017.8
20260507045411 39 0.0 0.0 0.00 0.00 0.00 10 1017.8
20260507044912 39 0.0 0.0 0.00 0.00 0.00 10 1017.7
20260507044412 39 0.0 0.0 0.00 0.00 0.00 10 1017.7
20260507043912 39 0.0 0.0 0.00 0.00 0.00 10 1017.6
20260507043411 39 0.0 0.0 0.00 0.00 0.00 10 1017.6
20260507042412 39 0.0 0.0 0.00 0.00 0.00 10 1017.6
20260507041912 40 0.0 0.0 0.00 0.00 0.00 10 1017.6
20260507040911 40 0.0 0.0 0.00 0.00 0.00 10 1017.6
20260507035911 40 0.0 0.0 0.00 0.00 0.00 10 1017.6
20260507035412 40 0.0 0.0 0.00 0.00 0.00 10 1017.6
20260507034912 40 0.0 0.0 0.00 0.00 0.00 10 1017.5
20260507034412 41 0.0 0.0 0.00 0.00 0.00 10 1017.4
20260507033912 41 0.0 0.0 0.00 0.00 0.00 10 1017.3
20260507033412 41 0.0 0.0 0.00 0.00 0.00 10 1017.4
20260507032911 41 0.0 0.0 0.00 0.00 0.00 10 1017.2
20260507032412 41 0.0 0.0 0.00 0.00 0.00 10 1017.3
20260507031911 41 0.0 0.0 0.00 0.00 0.00 10 1017.3
20260507031411 41 0.0 0.0 0.00 0.00 0.00 10 1017.3
20260507030911 41 0.0 0.0 0.00 0.00 0.00 10 1017.2
20260507025912 41 0.0 0.0 0.00 0.00 0.00 10 1017.2
20260507025412 42 0.0 0.0 0.00 0.00 0.00 10 1017.2
20260507024913 42 0.0 0.0 0.00 0.00 0.00 10 1017.3
20260507024412 42 0.0 0.0 0.00 0.00 0.00 10 1017.3
20260507023911 42 0.0 0.0 0.00 0.00 0.00 10 1017.2
20260507023411 42 0.0 0.0 0.00 0.00 0.00 10 1017.3
20260507022412 41 0.0 0.0 0.00 0.00 0.00 10 1017.3
20260507021911 42 0.0 0.0 0.00 0.00 0.00 10 1017.3
20260507021411 42 0.0 0.0 0.00 0.00 0.00 10 1017.2
20260507020912 42 0.0 0.0 0.00 0.00 0.00 10 1017.2
20260507020412 42 0.0 0.0 0.00 0.00 0.00 10 1017.2
20260507015912 42 0.0 0.0 0.00 0.00 0.00 10 1017.1
20260507015413 42 0.0 0.0 0.00 0.00 0.00 10 1017.0
20260507014912 41 0.0 0.0 0.00 0.00 0.00 10 1017.0
20260507014411 41 0.0 0.0 0.00 0.00 0.00 10 1016.9
20260507013911 41 0.0 0.0 0.00 0.00 0.00 10 1017.0
20260507013411 41 0.0 0.0 0.00 0.00 0.00 10 1017.0
20260507012911 41 0.0 0.0 0.00 0.00 0.00 10 1017.0
20260507012412 41 0.0 0.0 0.00 0.00 0.00 10 1017.0
20260507011412 40 0.0 0.0 0.00 0.00 0.00 10 1017.0
20260507010912 40 0.0 0.0 0.00 0.00 0.00 10 1017.0
20260507010411 40 0.0 0.0 0.00 0.00 0.00 10 1017.0
20260507005912 40 0.0 0.0 0.00 0.00 0.00 10 1017.0
20260507005412 41 0.0 0.0 0.00 0.00 0.00 10 1016.9
20260507004912 41 0.0 0.0 0.00 0.00 0.00 10 1017.0
20260507004411 41 0.0 0.0 0.00 0.00 0.00 10 1016.9
20260507003912 41 0.0 0.0 0.00 0.00 0.00 10 1017.0
20260507003412 41 0.0 0.0 0.00 0.00 0.00 10 1017.0
20260507002912 41 0.0 0.0 0.00 0.00 0.00 10 1016.9
20260507002412 41 0.0 0.0 0.00 0.00 0.00 10 1016.9
20260507001912 42 0.0 0.0 0.00 0.00 0.00 10 1017.0
20260507000912 42 0.0 0.0 0.00 0.00 0.00 10 1017.0
20260507000413 42 0.0 0.0 0.00 0.00 0.00 10 1016.9
20260506235912 42 0.0 0.0 0.00 0.00 0.00 10 1016.9
20260506235412 42 0.0 0.0 0.00 0.00 0.00 10 1016.9
20260506234912 42 0.0 0.0 0.00 0.00 0.00 10 1017.0
20260506234412 42 0.0 0.0 0.00 0.00 0.00 10 1016.9
20260506232911 43 0.0 0.0 0.00 0.00 0.00 10 1017.0
20260506232412 43 0.0 0.0 0.00 0.00 0.00 10 1016.9
20260506231412 43 0.0 0.0 0.00 0.00 0.00 10 1016.8
20260506230911 44 0.0 0.0 0.00 0.00 0.00 10 1016.8
20260506230411 44 0.0 0.0 0.00 0.00 0.00 10 1016.8
20260506225411 44 0.0 0.0 0.00 0.00 0.00 10 1016.6
20260506224411 44 0.0 0.0 0.00 0.00 0.00 10 1016.6
20260506223912 44 0.0 0.0 0.00 0.00 0.00 10 1016.5
20260506223411 44 0.0 0.0 0.00 0.00 0.00 10 1016.5
20260506222911 44 0.0 0.0 0.00 0.00 0.00 10 1016.5
20260506221911 45 0.0 0.0 0.00 0.00 0.00 10 1016.4
20260506221411 45 0.0 0.0 0.00 0.00 0.00 10 1016.4
20260506220912 45 0.0 0.0 0.00 0.00 0.00 10 1016.3
20260506220413 45 0.0 0.0 0.00 0.00 0.00 10 1016.3
20260506215911 45 0.0 0.0 0.00 0.00 0.00 10 1016.3
20260506215411 46 0.0 0.0 0.00 0.00 0.00 10 1016.2
20260506214912 46 0.0 0.0 0.00 0.00 0.00 10 1016.2
20260506214412 46 0.0 0.0 0.00 0.00 0.00 10 1016.1
20260506213912 46 0.0 0.0 0.00 0.00 0.00 10 1016.1
20260506213412 47 0.0 0.0 0.00 0.00 0.00 10 1016.1
20260506212912 47 0.0 0.0 0.00 0.00 0.00 10 1016.0
20260506212412 47 0.0 0.0 0.00 0.00 0.00 10 1015.9
20260506211911 48 0.0 0.0 0.00 0.00 0.00 10 1015.9
20260506211411 48 0.0 0.0 0.00 0.00 0.00 10 1015.8
20260506210412 49 0.0 0.0 0.00 0.00 0.00 10 1015.8
20260506205912 49 0.0 0.0 0.00 0.00 0.00 10 1015.8
20260506205412 50 0.0 0.0 0.00 0.00 0.00 10 1015.6
20260506204912 50 0.0 0.0 0.00 0.00 0.00 10 1015.6
20260506204411 51 0.0 0.0 0.00 0.00 0.00 10 1015.4
20260506203912 51 0.0 0.0 0.00 0.00 0.00 10 1015.4
20260506203412 51 0.0 0.0 0.00 0.00 0.00 10 1015.3
20260506202411 51 0.0 0.0 0.00 0.00 0.00 10 1015.3
20260506201911 51 0.0 0.0 0.00 0.00 0.00 10 1015.2
20260506201411 51 0.0 0.0 0.00 0.00 0.00 10 1015.2
20260506200912 51 0.0 0.0 0.00 0.00 0.00 10 1015.0
20260506200412 51 0.0 0.0 0.00 0.00 0.00 10 1015.0
20260506195913 51 0.0 0.0 0.00 0.00 0.00 10 1015.0
20260506195411 51 0.0 0.0 0.00 0.00 0.00 10 1014.9
20260506194413 51 0.0 0.0 0.00 0.00 0.00 10 1014.8
20260506193912 51 0.0 0.0 0.00 0.00 0.00 10 1014.7
20260506193411 51 0.0 0.0 0.00 0.00 0.00 10 1014.6
20260506192912 51 0.0 0.0 0.00 0.00 0.00 10 1014.5
20260506192412 51 0.0 0.0 0.00 0.00 0.00 10 1014.4
20260506191912 51 0.0 0.0 0.00 0.00 0.00 10 1014.4
20260506191411 51 0.0 0.0 0.00 0.00 0.00 10 1014.3
20260506190911 51 0.0 0.0 0.00 0.00 0.00 10 1014.3
20260506190411 52 0.0 0.0 0.00 0.00 0.00 10 1014.1
20260506185912 52 0.0 0.0 0.00 0.00 0.00 10 1014.1
20260506184412 54 0.0 0.0 0.00 0.00 0.00 10 1013.9
20260506182911 57 0.0 0.0 0.00 0.00 0.00 10 1013.6
20260506182411 57 0.0 0.0 0.00 0.00 0.00 10 1013.6
20260506181412 58 0.0 0.0 0.00 0.00 0.00 10 1013.4
20260506180912 58 0.0 0.0 0.00 0.00 0.00 10 1013.4
20260506180412 59 0.0 0.0 0.00 0.00 0.00 10 1013.3
20260506175412 60 0.0 0.0 0.00 0.00 0.00 10 1013.0
20260506174912 60 0.0 0.0 0.00 0.00 0.00 10 1013.0
20260506173912 60 0.0 0.0 0.00 0.00 0.00 10 1013.0
20260506173412 61 0.0 0.0 0.00 0.00 0.00 10 1012.9
20260506172911 61 0.0 0.0 0.00 0.00 0.00 10 1012.9
20260506172411 60 0.0 0.0 0.00 0.00 0.00 10 1012.9
20260506171411 61 0.0 0.0 0.00 0.00 0.00 10 1012.9
20260506170412 63 0.0 0.0 0.00 0.00 0.00 10 1012.9
20260506165912 64 0.0 0.0 0.00 0.00 0.00 10 1012.8
20260506165412 62 0.0 0.0 0.00 0.00 0.00 10 1012.9
20260506164912 63 0.0 0.0 0.00 0.00 0.00 10 1012.9
20260506164412 63 0.0 0.0 0.00 0.00 0.00 10 1012.9
20260506163912 63 0.0 0.0 0.00 0.00 0.00 10 1012.9
20260506163412 62 0.0 0.0 0.00 0.00 0.00 10 1012.9
20260506162411 58 0.0 0.0 0.00 0.00 0.00 10 1013.0
20260506161911 58 0.0 0.0 0.00 0.00 0.00 10 1013.2
20260506161411 58 0.0 0.0 0.00 0.00 0.00 10 1013.2
20260506160912 59 0.0 0.0 0.00 0.00 0.00 10 1013.2
20260506160412 59 0.0 0.0 0.00 0.00 0.00 10 1013.2
20260506155413 60 0.0 0.0 0.00 0.00 0.00 10 1013.0
20260506154911 60 0.0 0.0 0.00 0.00 0.00 10 1013.1
20260506153911 60 0.0 0.0 0.00 0.00 0.00 10 1013.1
20260506153412 60 0.0 0.0 0.00 0.00 0.00 10 1013.0
20260506152912 61 0.0 0.0 0.00 0.00 0.00 10 1013.0
20260506152412 61 0.0 0.0 0.00 0.00 0.00 10 1013.0
20260506151913 60 0.0 0.0 0.00 0.00 0.00 10 1013.1
20260506151411 59 0.0 0.0 0.00 0.00 0.00 10 1013.0
20260506150411 59 0.0 0.0 0.00 0.00 0.00 10 1013.2
20260506145911 59 0.0 0.0 0.00 0.00 0.00 10 1013.2
20260506145412 59 0.0 0.0 0.00 0.00 0.00 10 1013.1
20260506144913 59 0.0 0.0 0.00 0.00 0.00 10 1013.2
20260506144412 59 0.0 0.0 0.00 0.00 0.00 10 1013.2
20260506143912 59 0.0 0.0 0.00 0.00 0.00 10 1013.3